Meeker, CO

10:23 AM MDT on September 30, 2016 (GMT -0600)
Meeker

Weather History for KEEO - January, 2014

Change the Weather History Date:

Saturday, January 11, 2014

  Actual Average Record
Temperature  
Mean Temperature 27 °F 20 °F  
Max Temperature 41 °F 33 °F 46 °F (1999)
Min Temperature 13 °F 7 °F -20 °F (2011)
Degree Days  
Heating Degree Days 38 45  
Month to date heating degree days 523 498  
Since 1 July heating degree days 3952 3787  
Cooling Degree Days 0 0  
Month to date cooling degree days 0 0  
Year to date cooling degree days 0 0  
Moisture  
Dew Point 21 °F    
Average Humidity 68    
Maximum Humidity 88    
Minimum Humidity 48    
Precipitation  
Precipitation 0.00 in 0.03 in 0.58 in (2005)
Month to date precipitation 0.49 0.37  
Year to date precipitation 0.49 0.37  
Sea Level Pressure  
Sea Level Pressure 30.12 in    
Wind  
Wind Speed 7 mph (SSW)    
Max Wind Speed 20 mph    
Max Gust Speed 29 mph    
Visibility 10 miles    
Events      
T = Trace of Precipitation, MM = Missing Value Source: NWS Daily Summary

Daily Weather History Graph

Daily Weather History Graph

Search for Another Location

Airport or City:

Trip Planner

Search our weather history database for the weather conditions in past years. The results will help you decide how hot, cold, wet, or windy it might be!

Date:

Astronomy

Jan. 11, 2014 Rise Set
Actual Time 7:32 AM MST 5:06 PM MST
Civil Twilight 7:02 AM MST 5:36 PM MST
Nautical Twilight 6:29 AM MST 6:10 PM MST
Astronomical Twilight 5:56 AM MST 6:42 PM MST
Moon 1:52 PM MST (1/11) 3:40 AM MST (1/11)
Length of Visible Light 10h 33m
Length of Day
9h 33m
Waxing Gibbous, 83% of the Moon is Illuminated
Jan 11
Waxing Gibbous
Jan 15
Full
Jan 23
Last Quarter
Jan 30
New
Feb 6
First Quarter

Hourly Weather History & Observations

Time (MST) Temp. Windchill Dew Point Humidity Pressure Visibility Wind Dir Wind Speed Gust Speed Precip Events Conditions
12:53 AM 16.0 °F - 12.9 °F 88% 30.27 in 10.0 mi Calm Calm - N/A   Partly Cloudy
1:53 AM 17.1 °F 11.7 °F 12.9 °F 84% 30.29 in 10.0 mi ENE 3.5 mph - N/A   Partly Cloudy
2:53 AM 17.1 °F 11.7 °F 12.9 °F 84% 30.31 in 10.0 mi ENE 3.5 mph - N/A   Partly Cloudy
3:53 AM 19.0 °F - 15.1 °F 85% 30.32 in 10.0 mi Calm Calm - N/A   Overcast
4:53 AM 21.0 °F - 17.1 °F 85% 30.29 in 10.0 mi Calm Calm - N/A   Overcast
5:53 AM 23.0 °F - 19.0 °F 85% 30.30 in 10.0 mi Calm Calm - N/A   Mostly Cloudy
6:53 AM 28.0 °F 19.3 °F 21.0 °F 75% 30.30 in 10.0 mi NNE 9.2 mph - N/A   Overcast
7:53 AM 28.0 °F 20.8 °F 21.0 °F 75% 30.34 in 10.0 mi NNE 6.9 mph - N/A   Overcast
8:53 AM 34.0 °F 28.0 °F 23.0 °F 64% 30.29 in 10.0 mi ENE 6.9 mph - N/A   Overcast
9:53 AM 36.0 °F 32.1 °F 23.0 °F 59% 30.29 in 10.0 mi ENE 4.6 mph - N/A   Overcast
10:53 AM 37.9 °F 35.5 °F 24.1 °F 57% 30.25 in 10.0 mi North 3.5 mph - N/A   Overcast
11:53 AM 39.9 °F 35.1 °F 24.1 °F 53% 30.19 in 10.0 mi WSW 6.9 mph - N/A   Mostly Cloudy
12:53 PM 39.9 °F 32.9 °F 24.1 °F 53% 30.13 in 10.0 mi South 11.5 mph - N/A   Clear
1:53 PM 41.0 °F 33.9 °F 24.1 °F 51% 30.10 in 10.0 mi South 12.7 mph - N/A   Clear
2:53 PM 39.9 °F 33.4 °F 24.1 °F 53% 30.07 in 10.0 mi SSW 10.4 mph - N/A   Clear
3:53 PM 39.9 °F 32.5 °F 25.0 °F 55% 30.04 in 10.0 mi South 12.7 mph - N/A   Clear
4:53 PM 37.9 °F 31.5 °F 24.1 °F 57% 30.03 in 10.0 mi SW 9.2 mph - N/A   Clear
5:53 PM 39.0 °F 31.4 °F 23.0 °F 53% 30.00 in 10.0 mi West 12.7 mph - N/A   Clear
6:53 PM 37.9 °F 32.7 °F 21.9 °F 53% 29.96 in 10.0 mi West 6.9 mph - N/A   Clear
7:53 PM 39.0 °F 29.6 °F 21.9 °F 50% 29.92 in 10.0 mi SSW 18.4 mph 25.3 mph N/A   Clear
8:53 PM 39.0 °F - 21.9 °F 50% 29.85 in 10.0 mi Calm Calm - N/A   Clear
9:53 PM 39.9 °F 35.1 °F 21.9 °F 49% 29.82 in 10.0 mi Variable 6.9 mph 17.3 mph N/A   Clear
10:53 PM 39.0 °F - 23.0 °F 53% 29.76 in 10.0 mi North - - N/A   Clear
11:53 PM 39.0 °F 29.9 °F 24.1 °F 55% 29.71 in 10.0 mi WSW 17.3 mph 28.8 mph N/A   Overcast